Location: LDNL
(36.4545°S, 141.6685°E)
Time: 04:03:04
(UTC+10:00)

KAITUO 1B - Visible Passes

Search period start: 17 May 2022 00:00
Search period end: 27 May 2022 00:00
Orbit: 479 x 500 km, 97.4° (Epoch: 16 May)

Date Brightness Start Highest point End Pass type
(mag) Time Alt. Az. Time Alt. Az. Time Alt. Az.
17 May ? 05:29:44 10° ENE 05:32:12 17° ESE 05:34:40 10° SSE visible
17 May ? 18:33:02 14° SE 18:35:31 28° E 18:38:40 10° NNE visible
17 May ? 20:07:30 13° SW 20:08:46 15° WSW 20:10:58 10° WNW visible
18 May ? 06:39:02 10° N 06:42:39 53° W 06:46:20 10° SSW visible
18 May ? 18:10:29 10° ESE 18:12:34 14° E 18:14:38 10° NE visible
18 May ? 19:44:37 21° SSW 19:46:09 29° WSW 19:49:19 10° NW visible
19 May ? 06:16:10 10° NNE 06:19:51 72° ESE 06:23:36 10° S visible
19 May ? 19:21:42 28° S 19:23:25 59° WSW 19:27:00 10° NNW visible
20 May ? 05:53:44 10° NE 05:57:06 34° ESE 06:00:31 10° S visible
20 May ? 18:58:44 27° SSE 19:00:37 63° E 19:04:11 10° N visible
21 May ? 05:31:50 10° ENE 05:34:25 18° ESE 05:37:01 10° SSE visible
21 May ? 18:35:46 19° SE 18:37:42 30° E 18:40:54 10° NNE visible
21 May ? 20:10:13 14° SW 20:10:55 14° WSW 20:12:57 10° WNW visible
22 May ? 06:41:13 10° N 06:44:48 49° W 06:48:27 10° SSW visible
22 May ? 18:12:45 11° ESE 18:14:40 15° E 18:16:52 10° NE visible
22 May ? 19:47:13 24° SW 19:48:13 27° WSW 19:51:18 10° NW visible
23 May ? 06:18:13 10° NNE 06:21:55 76° ESE 06:25:39 10° S visible
23 May ? 19:24:10 35° SSW 19:25:25 55° WSW 19:28:58 10° NNW visible
24 May ? 05:55:40 10° NE 05:59:04 36° ESE 06:02:31 10° S visible
24 May ? 19:01:06 34° SSE 19:02:31 67° E 19:06:06 10° N visible
25 May ? 05:33:37 10° ENE 05:36:17 19° ESE 05:38:58 10° SSE visible
25 May ? 18:38:00 22° SE 18:39:31 31° E 18:42:45 10° NNE visible
25 May ? 20:12:27 14° WSW 20:12:43 14° WSW 20:14:36 10° W visible
26 May ? 06:43:01 10° N 06:46:35 47° W 06:50:12 10° SSW visible
26 May ? 18:14:52 13° ESE 18:16:25 16° E 18:18:42 10° NE visible
26 May ? 19:49:20 24° SW 19:49:55 26° WSW 19:52:58 10° NW visible
